ATLAS CENTAUR 2 1 00694U 63047A 25312.70913032 .00005568 00000+0 67714-3 0 9998 2 00694 30.3502 151.4968 0550115 94.4783 271.8838 14.11424142114513 THOR AGENA D R/B 1 00733U 64002A 25312.74086991 .00000371 00000+0 14976-3 0 9992 2 00733 99.1221 314.5198 0031965 250.1198 109.6539 14.33929569220963 SL-3 R/B 1 00877U 64053B 25312.42098443 .00000548 00000+0 13146-3 0 9991 2 00877 65.0773 326.7275 0070649 331.9935 27.7370 14.61218538249070 SL-8 R/B 1 02802U 67045B 25312.74256201 .00000561 00000+0 16310-3 0 9999 2 02802 74.0112 213.9410 0065568 250.7334 108.6723 14.45497081 71540 SL-8 R/B 1 03230U 68040B 25312.81253977 .00005613 00000+0 42641-3 0 9995 2 03230 74.0311 200.4841 0023596 52.0443 308.2871 15.02190702 71855 OAO 2 1 03597U 68110A 25312.77512980 .00000441 00000+0 12411-3 0 9992 2 03597 34.9930 220.2706 0006095 302.9642 57.0462 14.47211557 1573 ISIS 1 1 03669U 69009A 25312.54283676 .00000254 00000+0 18045-3 0 9993 2 03669 88.4525 168.5348 1707643 333.7996 18.5530 11.30334882334848 SERT 2 1 04327U 70009A 25312.77995177 .00000018 00000+0 81110-4 0 9990 2 04327 99.2591 257.5843 0005584 109.1524 280.1194 13.58711078763474 SL-3 R/B 1 05118U 71028B 25312.78960025 .00038771 00000+0 63435-3 0 9992 2 05118 81.2402 200.2675 0022148 4.5680 355.5765 15.52047459969862 ASTEX 1 1 05560U 71089A 25312.69730791 .00000938 00000+0 23933-3 0 9998 2 05560 92.7120 112.6105 0017352 128.3470 231.9298 14.50575915844763 SL-8 R/B 1 05730U 71119B 25312.67399689 .00010279 00000+0 54554-3 0 9998 2 05730 73.8894 41.4233 0561224 32.6350 330.8203 14.34894421638110 OAO 3 (COPERNICUS) 1 06153U 72065A 25312.19908009 .00000650 00000+0 13813-3 0 9993 2 06153 35.0057 269.4245 0007290 248.1285 128.9587 14.59859410828438 ATLAS CENTAUR R/B 1 06155U 72065B 25312.66597307 .00002176 00000+0 30237-3 0 9996 2 06155 35.0021 294.7765 0033135 71.8856 288.5449 14.77272064823351 SL-8 R/B 1 08459U 75112B 25312.74480461 .00000475 00000+0 16497-3 0 9994 2 08459 74.0606 241.3824 0015575 357.9318 2.1769 14.38111338614485 SL-3 R/B 1 10114U 77057B 25312.76070351 .00015989 00000+0 37854-3 0 9996 2 10114 97.5683 114.7972 0007872 9.0691 351.0696 15.41840488649672 SEASAT 1 1 10967U 78064A 25312.50819764 .00000699 00000+0 23429-3 0 9997 2 10967 108.0060 231.2302 0002475 257.8825 102.2044 14.46001411488991 SL-14 R/B 1 11267U 79011B 25312.71269242 .00001076 00000+0 10413-3 0 9996 2 11267 82.5263 211.3089 0017694 100.3098 260.0117 14.91706098510746 SL-8 R/B 1 11574U 79089B 25312.70944904 .00000402 00000+0 12967-3 0 9994 2 11574 74.0680 314.9646 0015182 162.6643 197.5035 14.42247341418660 SL-14 R/B 1 11672U 80005B 25312.78048325 .00001219 00000+0 12142-3 0 9995 2 11672 82.5155 61.8983 0015208 201.8357 158.2216 14.90721773458476 SL-8 R/B 1 12139U 81003B 25312.65561330 .00033386 00000+0 92795-3 0 9997 2 12139 82.9336 41.5295 0283132 238.1938 119.1437 15.05181659296439 SL-3 R/B 1 12465U 81046B 25312.75734087 .00018755 00000+0 48785-3 0 9991 2 12465 81.2333 74.5526 0020781 80.6626 279.6964 15.38561363419812 METEOR PRIRODA 1 12585U 81065A 25312.78754313 .00622929 19570-3 82535-3 0 9993 2 12585 97.4668 16.9450 0003826 268.0936 91.9908 16.06777345425352 SL-3 R/B 1 12904U 81103B 25312.82189845 .00010224 00000+0 47775-3 0 9998 2 12904 81.1600 355.0611 0013617 346.3764 13.7096 15.19604007954867 SL-3 R/B 1 13068U 82013B 25312.76010632 .00006559 00000+0 29597-3 0 9999 2 13068 81.1734 302.3747 0021846 224.5805 135.3670 15.20636628385962 SL-3 R/B 1 13154U 82039B 25312.83011149 .00004003 00000+0 24711-3 0 9990 2 13154 81.1803 355.0859 0032448 3.0951 357.0468 15.09245017363404 SL-3 R/B 1 13403U 82079B 25312.78651470 .00007455 00000+0 31277-3 0 9991 2 13403 81.1468 335.6727 0025041 211.9180 148.0537 15.23054136359283 SL-14 R/B 1 13553U 82092B 25312.81511965 .00001032 00000+0 11364-3 0 9990 2 13553 82.5674 254.4362 0020066 346.9724 35.6176 14.86495758310971 SL-3 R/B 1 13819U 83010B 25312.52779698 .00016280 00000+0 37610-3 0 9996 2 13819 81.1024 150.3397 0018393 107.1724 253.1534 15.42207474339244 SL-3 R/B 1 14208U 83075B 25312.77322435 .00016027 00000+0 46848-3 0 9992 2 14208 97.6104 308.1413 0021527 305.0647 54.8576 15.35140734311582 COSMOS 1536 1 14699U 84013A 25312.75584949 .00011924 00000+0 52038-3 0 9996 2 14699 82.5472 227.8470 0015176 355.9227 4.1882 15.21918122254211 SL-14 R/B 1 14820U 84027B 25312.54718619 .00000759 00000+0 84253-4 0 9996 2 14820 82.5433 358.6216 0018457 19.5577 340.6343 14.85821337229640 SL-8 R/B 1 15483U 85006B 25312.78505492 .00000353 00000+0 12591-3 0 9994 2 15483 74.0430 123.6038 0017532 67.0148 304.2148 14.37688923136652 SL-12 R/B(2) 1 15772U 85042D 25312.50406117 .00000204 00000+0 11320-3 0 9993 2 15772 71.1089 343.7488 0037086 311.7040 198.6836 14.21935126 97165 SL-14 R/B 1 15945U 85069B 25312.77055919 .00000797 00000+0 87681-4 0 9994 2 15945 82.5247 138.6395 0017620 230.1542 129.8125 14.86262817154870 SL-16 R/B 1 16182U 85097B 25312.69280498 -.00000167 00000+0 -59658-4 0 9998 2 16182 71.0047 35.2801 0005116 75.9355 85.5690 14.16576179 70091 SL-14 R/B 1 16496U 86006B 25312.57492862 .00001030 00000+0 10765-3 0 9997 2 16496 82.5295 13.6946 0075694 315.0134 44.4965 14.86600248131215 COSMOS 1743 1 16719U 86034A 25312.65366992 .00041610 00000+0 74338-3 0 9993 2 16719 82.5372 199.9284 0007929 30.3146 329.8562 15.49816121161459 SL-14 R/B 1 16792U 86046B 25312.62987919 .00000797 00000+0 89389-4 0 9996 2 16792 82.4839 194.5236 0021614 268.3818 91.4922 14.85433510108438 SL-14 R/B 1 16882U 86055B 25312.82383041 .00000993 00000+0 11197-3 0 9993 2 16882 82.5213 240.2366 0019501 16.7677 4.6687 14.85473576101420 AJISAI (EGS) 1 16908U 86061A 25312.87477578 -.00000109 00000+0 -81642-4 0 9997 2 16908 50.0073 104.8485 0011172 340.5594 184.2779 12.44514155452958 COSMOS 1812 1 17295U 87003A 25312.48004275 .00077285 00000+0 67730-3 0 9999 2 17295 82.4883 328.9037 0004400 150.1091 210.0423 15.68582945125278 SL-14 R/B 1 17567U 87024B 25312.63987751 .00000860 00000+0 95543-4 0 9999 2 17567 82.5306 206.4824 0017049 304.8792 55.0821 14.85972588 70153 COSMOS 1833 1 17589U 87027A 25312.73798561 -.00000227 00000+0 -95756-4 0 9991 2 17589 70.9154 220.2530 0021006 19.7428 340.4501 14.13021332993224 SL-16 R/B 1 17590U 87027B 25312.56859329 .00000230 00000+0 13789-3 0 9991 2 17590 71.0011 171.7223 0007011 295.3661 64.6736 14.17146325998224 SL-14 R/B 1 17912U 87038B 25312.70740675 .00000933 00000+0 10578-3 0 9993 2 17912 82.5033 50.7473 0018796 200.5472 159.4990 14.85208295 61277 COSMOS 1844 1 17973U 87041A 25312.33543105 .00000500 00000+0 28432-3 0 9990 2 17973 70.8980 290.1346 0031988 208.3807 151.5574 14.14516558986420 SL-14 R/B 1 18153U 87055B 25312.84001671 .00000864 00000+0 97011-4 0 9992 2 18153 82.4970 102.9350 0021929 55.5502 304.7782 14.85464727 51998 COSMOS 1867 1 18187U 87060A 25312.64965506 .00000034 00000+0 50238-4 0 9998 2 18187 65.0100 285.6671 0013732 267.7097 92.2415 14.31477323 2615 COSMOS 1892 1 18421U 87088A 25312.63188451 .00350599 47529-4 85636-3 0 9999 2 18421 82.4696 82.1960 0005861 290.0818 69.9826 15.96108757 85852 SL-14 R/B 1 18749U 88001B 25312.49043091 .00000780 00000+0 87789-4 0 9996 2 18749 82.5106 309.3680 0016495 280.2270 79.7086 14.85366853 24033 COSMOS 1933 1 18958U 88020A 25312.71478520 .00007217 00000+0 36682-3 0 9990 2 18958 82.5154 10.4859 0002898 251.1736 108.9183 15.16709974 31886 SL-3 R/B 1 19046U 88032B 25312.79280797 .00008663 00000+0 42324-3 0 9993 2 19046 97.5053 291.7665 0025160 297.5852 62.2826 15.18213764 33751 SL-16 R/B 1 19120U 88039B 25312.50149691 .00000200 00000+0 11723-3 0 9997 2 19120 71.0146 324.7943 0021377 172.2621 187.8838 14.19587696941189 COSMOS 1953 1 19210U 88050A 25312.88325418 .00008206 00000+0 31376-3 0 9994 2 19210 82.5070 279.5407 0011695 178.5173 181.6103 15.26377404 19341 SL-8 R/B 1 19257U 88053B 25312.48018480 .00000424 00000+0 14617-3 0 9995 2 19257 74.0476 335.8641 0020227 190.5211 276.4288 14.38827777959167 COSMOS 1975 1 19573U 88093A 25312.75066375 .00014571 00000+0 57013-3 0 9991 2 19573 82.5216 238.8301 0009586 231.2969 128.7413 15.25669990 958 SL-14 R/B 1 19574U 88093B 25312.55146251 .00000710 00000+0 79096-4 0 9998 2 19574 82.5301 155.7510 0022305 79.7009 310.5879 14.85496226983050 SL-16 R/B 1 19650U 88102B 25312.69447131 -.00000151 00000+0 -51908-4 0 9993 2 19650 71.0012 46.0753 0014995 204.3544 155.6872 14.16130639909768 INTERCOSMOS 24 1 20261U 89080A 25312.57942301 .00001031 00000+0 30419-3 0 9994 2 20261 82.6081 183.1652 1187926 213.7702 138.1962 12.59362168651555 SL-14 R/B 1 20262U 89080C 25312.81977119 .00000455 00000+0 12749-3 0 9992 2 20262 82.5924 250.7876 1231387 101.0732 273.1029 12.50376351645044 DELTA 1 R/B 1 20323U 89089B 25312.56311794 .00000596 00000+0 15618-3 0 9996 2 20323 97.0785 174.2122 0070079 144.3005 216.2909 14.50528334878172 ARIANE 40 R/B 1 20443U 90005H 25312.61694529 .00000545 00000+0 18749-3 0 9997 2 20443 98.3290 11.7517 0009713 202.9825 157.0931 14.39757423875388 DELTA 2 R/B(1) 1 20453U 90008B 25312.79491059 .00050351 00000+0 87863-3 0 9996 2 20453 35.6072 239.2086 0118544 229.7729 129.2582 15.42063991907386 COSMOS 2058 1 20465U 90010A 25312.76888083 .00005302 00000+0 32357-3 0 9990 2 20465 82.4660 166.4491 0011417 34.7344 325.4628 15.10076259923982 SL-14 R/B 1 20466U 90010B 25312.61468469 .00000744 00000+0 87579-4 0 9999 2 20466 82.5051 21.0917 0019321 343.1896 16.8676 14.83423742910531 SL-14 R/B 1 20511U 90018B 25312.51607172 .00000646 00000+0 78242-4 0 9991 2 20511 82.5210 336.3565 0017637 127.7593 232.5223 14.81996933904632 HST 1 20580U 90037B 25312.62670398 .00009804 00000+0 34712-3 0 9998 2 20580 28.4659 144.5654 0001507 200.4727 159.5808 15.27381835754774 SL-16 R/B 1 20625U 90046B 25312.67199791 -.00000175 00000+0 -65565-4 0 9991 2 20625 70.9983 192.0661 0012307 135.4686 224.7428 14.14991726831278 COSMOS 2084 1 20663U 90055A 25312.67898999 .00005171 00000+0 37402-3 0 9996 2 20663 62.7923 28.0242 0037321 170.7209 189.4589 15.04710893918109 SL-6 R/B(2) 1 20666U 90055D 25312.70219256 .00004152 00000+0 32256-3 0 9996 2 20666 62.7840 305.0478 0010756 279.3344 80.6539 15.02819740920006 SL-8 R/B 1 20775U 90078B 25312.83801693 .00021464 00000+0 66244-3 0 9997 2 20775 82.9069 359.6035 0381932 59.2909 304.5351 14.84095353791345 SL-8 R/B 1 21088U 91006B 25312.82286448 .00000168 00000+0 15295-3 0 9999 2 21088 82.9408 259.9418 0023008 17.2942 11.7921 13.77482754747432 OKEAN-3 1 21397U 91039A 25312.81672840 .00006112 00000+0 44217-3 0 9993 2 21397 82.5164 93.8718 0014992 26.1030 334.0949 15.03772050846867 COSMOS 2151 1 21422U 91042A 25312.79299194 .00003021 00000+0 24359-3 0 9991 2 21422 82.4989 200.2077 0014109 105.0513 255.2273 14.99502684845079 SL-14 R/B 1 21423U 91042B 25312.47624810 .00000626 00000+0 76498-4 0 9994 2 21423 82.4924 333.8583 0015506 280.5125 79.4342 14.81691342835123 ERS-1 1 21574U 91050A 25312.74359264 .00000538 00000+0 18695-3 0 9994 2 21574 98.7925 322.9448 0031650 199.2649 160.7344 14.39324484798335 ARIANE 40 R/B 1 21610U 91050F 25312.59668668 .00000607 00000+0 19464-3 0 9991 2 21610 98.2215 4.2516 0004318 85.4421 274.7262 14.42768220801530 INTERCOSMOS 25 1 21819U 91086A 25312.61938819 .00001670 00000+0 32456-3 0 9999 2 21819 82.6087 23.1991 1488553 17.9377 346.8885 12.11578185482024 SL-8 R/B 1 21876U 92008B 25312.59302453 .00000144 00000+0 13187-3 0 9998 2 21876 82.9289 357.8449 0036048 112.2708 39.8040 13.75948434692768 SL-8 R/B 1 21938U 92020B 25312.60297935 .00000076 00000+0 63835-4 0 9991 2 21938 82.9305 243.6645 0027638 276.6215 257.3669 13.75520580684481 USA 81 1 21949U 92023A 25312.66283916 .00000311 00000+0 10780-3 0 9998 2 21949 85.0114 201.2239 0002693 79.5509 280.5987 14.32307969 77467 COSMOS 2219 1 22219U 92076A 25312.84052403 .00000256 00000+0 15907-3 0 9996 2 22219 71.0605 270.6920 0017396 17.5398 342.6321 14.14064061701299 SL-16 R/B 1 22220U 92076B 25312.83941072 .00000171 00000+0 10914-3 0 9995 2 22220 70.9994 82.9382 0015145 278.1178 197.1029 14.16834484704711 COSMOS 2221 1 22236U 92080A 25312.69798355 .00003775 00000+0 33773-3 0 9996 2 22236 82.5069 34.8979 0013440 235.6183 124.3768 14.95557484762702 SL-16 R/B 1 22285U 92093B 25312.82190229 .00000343 00000+0 19994-3 0 9992 2 22285 71.0206 257.9928 0003074 161.7495 198.3739 14.15420669696050 COSMOS 2228 1 22286U 92094A 25312.79268891 .00003901 00000+0 34020-3 0 9991 2 22286 82.5190 353.0124 0017810 354.2102 5.8911 14.96497264757970 SL-16 R/B 1 22566U 93016B 25312.49688970 -.00000005 00000+0 22064-4 0 9997 2 22566 71.0047 109.7197 0009326 159.5090 200.6409 14.15278355685028 COSMOS 2242 1 22626U 93024A 25312.65743274 .00003491 00000+0 30919-3 0 9998 2 22626 82.5218 22.4118 0016216 357.7053 2.4091 14.95895232762290 SL-16 R/B 1 22803U 93059B 25312.85265395 .00000170 00000+0 10802-3 0 9998 2 22803 70.9893 265.9422 0015923 27.4134 332.7826 14.17202795662412 ARIANE 40 R/B 1 22830U 93061H 25312.60899583 .00000418 00000+0 16940-3 0 9990 2 22830 98.5118 18.7535 0009617 283.6788 76.3325 14.32768226676762 COSMOS 2278 1 23087U 94023A 25312.72921437 .00000302 00000+0 18256-3 0 9995 2 23087 71.0530 68.1618 0010203 222.9761 137.0565 14.14333851627705 SL-16 R/B 1 23088U 94023B 25312.47754199 -.00000123 00000+0 -38857-4 0 9990 2 23088 71.0003 325.4403 0001609 172.3725 187.7422 14.14993043628946 SL-16 R/B 1 23343U 94074B 25312.60076103 .00000838 00000+0 11951-3 0 9993 2 23343 97.7248 343.2551 0005174 251.9331 264.0629 14.79229146669340 SL-16 R/B 1 23405U 94077B 25312.85976300 .00000348 00000+0 20238-3 0 9994 2 23405 70.9822 246.6853 0003722 311.6144 48.4659 14.15541540599135 ARIANE 40+ R/B 1 23561U 95021B 25312.63101934 .00000561 00000+0 19324-3 0 9997 2 23561 98.4690 20.6256 0007551 138.5516 21.2834 14.39654098601829 SL-16 R/B 1 23705U 95058B 25312.79007765 .00000102 00000+0 76724-4 0 9990 2 23705 71.0218 74.0778 0014658 299.2643 60.7014 14.15475896550749 SL-16 R/B 1 24298U 96051B 25312.70641448 -.00000033 00000+0 89909-5 0 9999 2 24298 70.7598 71.3173 0017866 304.5038 55.4394 14.12392409504561 ORBVIEW 2 (SEASTAR) 1 24883U 97037A 25312.82870535 .00000534 00000+0 20219-3 0 9990 2 24883 98.8446 109.0538 0003079 67.4690 292.6820 14.35376907491135 SL-16 R/B 1 25400U 98043G 25312.83858856 .00000147 00000+0 80384-4 0 9997 2 25400 98.8066 260.4768 0010065 11.2895 348.8508 14.26012300421766 SL-16 R/B 1 25407U 98045B 25312.71909531 .00000019 00000+0 33733-4 0 9994 2 25407 71.0115 75.9676 0008809 223.7335 136.3091 14.16169014409970 ISS (ZARYA) 1 25544U 98067A 25312.42041502 .00013418 00000+0 24734-3 0 9990 2 25544 51.6332 312.3676 0004093 47.8963 312.2373 15.49452868537539 CZ-4B R/B 1 25732U 99025C 25312.62081837 .00000136 00000+0 86715-4 0 9992 2 25732 98.6820 354.6551 0036594 334.6833 176.8882 14.18230436371003 OKEAN-O 1 25860U 99039A 25312.58232527 .00001307 00000+0 17937-3 0 9998 2 25860 97.9652 8.5723 0001563 70.0859 290.0521 14.80073515416475 SL-16 R/B 1 25861U 99039B 25312.61038132 .00001041 00000+0 13955-3 0 9990 2 25861 98.0175 6.7514 0013567 292.4049 67.5726 14.81510858418938 DELTA 2 R/B 1 25876U 99041E 25312.72179382 .00001321 00000+0 25162-3 0 9998 2 25876 51.7631 64.2237 0504806 351.5247 7.7391 14.11277655345948 HELIOS 1B 1 25977U 99064A 25312.69132863 .00003090 00000+0 35089-3 0 9998 2 25977 98.1753 206.3518 0002568 88.6711 271.4798 14.87066835667276 TERRA 1 25994U 99068A 25312.84223546 .00000853 00000+0 18344-3 0 9996 2 25994 97.9796 5.7610 0002106 171.4716 308.3248 14.60891767377434 SL-16 R/B 1 26070U 00006B 25312.56187073 .00000065 00000+0 57200-4 0 9999 2 26070 71.0040 352.5227 0016615 357.4256 2.6779 14.15802048331412 TITAN 4B R/B 1 26474U 00047B 25312.79723784 .00006771 00000+0 43342-3 0 9993 2 26474 67.9916 20.1579 0042285 184.1354 175.9452 15.08410704374674 ENVISAT 1 27386U 02009A 25312.82854037 .00000229 00000+0 88169-4 0 9995 2 27386 98.3543 264.4385 0001302 83.5726 308.7645 14.38979566241793 IDEFIX & ARIANE 42P R/B 1 27422U 02021B 25312.52998627 .00000503 00000+0 20789-3 0 9999 2 27422 98.5734 247.6746 0011628 178.8290 181.2922 14.30911204226699 AQUA 1 27424U 02022A 25312.86679637 .00002058 00000+0 42310-3 0 9997 2 27424 98.3988 273.2071 0000986 51.3148 330.1970 14.61683756251089 CZ-4B R/B 1 27432U 02024C 25312.57118909 .00000107 00000+0 78167-4 0 9999 2 27432 98.9053 1.4534 0050249 8.1663 153.3085 14.14517103212114 MIDORI II (ADEOS-II) 1 27597U 02056A 25312.83081573 .00000487 00000+0 20949-3 0 9996 2 27597 98.7582 265.6192 0001498 39.2285 320.9005 14.29169484193036 H-2A R/B 1 27601U 02056E 25312.82207882 .00000445 00000+0 17077-3 0 9996 2 27601 98.3013 272.9394 0070609 160.8474 211.4023 14.33638508196796 CZ-4B R/B 1 28059U 03049C 25312.48357147 .00000657 00000+0 16278-3 0 9996 2 28059 98.6764 297.7579 0047197 241.0192 118.6269 14.54859887168972 CZ-2C R/B 1 28222U 04012C 25312.61092544 .00047875 00000+0 77504-3 0 9993 2 28222 97.7479 2.4862 0019757 38.5413 321.7245 15.52447105185424 SL-16 R/B 1 28353U 04021B 25312.74974889 .00000099 00000+0 76300-4 0 9994 2 28353 70.9968 126.2923 0006757 235.3583 124.6903 14.14570128105735 CZ-4B R/B 1 28415U 04035C 25312.55088469 .00013277 00000+0 50094-3 0 9990 2 28415 97.3651 343.3621 0035131 40.4012 319.9826 15.26570402161412 CZ-2C R/B 1 28480U 04046B 25312.73985948 .00000273 00000+0 11642-3 0 9990 2 28480 98.1956 230.2370 0140047 152.1032 208.7750 14.26917494 91252 ARIANE 5 R/B 1 28499U 04049H 25312.69187816 .00001378 00000+0 15891-3 0 9993 2 28499 98.2514 111.7590 0085213 24.0070 336.5080 14.84905905127830 CZ-2D R/B 1 28738U 05024B 25312.74422825 .00034998 00000+0 60418-3 0 9990 2 28738 97.3667 319.3530 0008175 100.0445 260.1729 15.50894737120983 ALOS (DAICHI) 1 28931U 06002A 25312.57957721 .00002920 00000+0 50280-3 0 9997 2 28931 98.1041 264.3215 0001262 50.5269 309.6048 14.69314556 55698 H-2A R/B 1 28932U 06002B 25312.81620502 .00012941 00000+0 69805-3 0 9996 2 28932 98.2306 84.8259 0054626 292.4465 67.0985 15.13617751 76134 RESURS-DK 1 1 29228U 06021A 25312.82640479 .00004209 00000+0 25141-3 0 9995 2 29228 69.9325 189.4619 0007310 286.8896 73.1468 15.11881730 69251 CZ-4B R/B 1 29507U 06046C 25312.83419825 .00007849 00000+0 41375-3 0 9992 2 29507 97.5777 353.0662 0033460 328.5020 31.4209 15.15368714 41733 CZ-2C R/B 1 31114U 07010B 25312.76038780 .00000241 00000+0 13025-3 0 9990 2 31114 98.3958 67.1248 0057901 286.1083 73.3725 14.20188432962559 COSMO-SKYMED 1 1 31598U 07023A 25312.80048091 .00006393 00000+0 58402-3 0 9993 2 31598 97.8854 137.9844 0001474 91.7991 268.3398 14.95386704996827 COSMOS 2428 1 31792U 07029A 25312.82614852 -.00000207 00000+0 -85559-4 0 9995 2 31792 70.9362 97.0784 0001995 87.1943 272.9406 14.12889914947021 SL-16 R/B 1 31793U 07029B 25312.58397455 .00000286 00000+0 17329-3 0 9990 2 31793 70.9754 66.9513 0002177 257.8028 113.0188 14.14805482948242 KORONAS-FOTON 1 33504U 09003A 25312.72072405 .00018644 00000+0 46390-3 0 9994 2 33504 82.4336 41.3197 0010881 227.8959 132.1362 15.40082151927102 CZ-2C R/B 1 37731U 11030B 25312.86772111 .00002959 00000+0 38200-3 0 9992 2 37731 97.8363 267.7387 0053868 25.1297 354.8485 14.80715024772213 H-2A R/B 1 38341U 12025E 25312.82359615 .00007089 00000+0 65632-3 0 9999 2 38341 98.4548 265.4577 0045282 350.2666 9.7670 14.94080943730162 SHIJIAN-16 (SJ-16) 1 39358U 13057A 25312.87194388 .00003589 00000+0 35756-3 0 9998 2 39358 74.9742 53.7261 0016250 42.4131 317.8309 14.91806966653483 SL-4 R/B 1 39679U 14021B 25312.71983872 .00023854 00000+0 57890-3 0 9993 2 39679 51.6073 205.7785 0104318 23.7504 336.8243 15.35395519637663 ALOS-2 1 39766U 14029A 25312.58839948 .00003088 00000+0 42000-3 0 9991 2 39766 97.9234 47.9202 0001239 102.6108 257.5242 14.79493435618960 YAOGAN-29 1 41038U 15069A 25312.87791126 .00000744 00000+0 98611-4 0 9994 2 41038 98.0254 335.9349 0002370 54.9394 305.2042 14.82824393537979 ASTRO-H (HITOMI) 1 41337U 16012A 25312.69519701 .00005123 00000+0 30982-3 0 9994 2 41337 31.0004 56.7916 0009891 195.4971 164.5365 15.09039436533938 HXMT (HUIYAN) 1 42758U 17034A 25312.52983891 .00008303 00000+0 43428-3 0 9996 2 42758 43.0155 329.3951 0033167 191.6377 168.3707 15.15681693464148 CZ-2C R/B 1 43521U 18054D 25312.65835789 .00114568 00000+0 10211-2 0 9998 2 43521 35.1362 50.7102 0024352 172.9008 187.2071 15.66722844409694 SAOCOM 1A 1 43641U 18076A 25312.84915059 .00000792 00000+0 10606-3 0 9997 2 43641 97.8868 137.7623 0001349 91.4277 268.7091 14.82154700383461 H-2A R/B 1 43682U 18084L 25312.76401064 .00026078 00000+0 74211-3 0 9995 2 43682 98.8801 139.8471 0029236 81.5483 278.9068 15.35692558387189 SAOCOM 1B 1 46265U 20059A 25312.81291970 .00000789 00000+0 10560-3 0 9997 2 46265 97.8856 136.8290 0001478 88.3207 271.8175 14.82161988280846 CSS (TIANHE) 1 48274U 21035A 25312.83194167 .00042043 00000+0 49295-3 0 9992 2 48274 41.4657 222.5840 0005261 347.1900 12.8804 15.60711560258735 COSMOS 2550 1 48865U 21056A 25311.70958659 -.00000148 00000+0 13417-5 0 9990 2 48865 67.1420 49.9474 0008374 269.6129 90.4066 15.33832179244756 CZ-2C R/B 1 52794U 22058K 25312.77379243 .00037809 00000+0 72777-3 0 9998 2 52794 50.1909 216.4635 0049386 57.2388 303.3324 15.46136923191372 GSLV R/B 1 54149U 22138AN 25312.67487917 .00004988 00000+0 44251-3 0 9998 2 54149 87.3854 206.8740 0019565 227.1296 132.8293 14.95852637165833 XRISM 1 57800U 23137A 25312.39680122 .00008313 00000+0 49583-3 0 9996 2 57800 31.0034 347.1931 0008202 257.7990 102.1729 15.09800453119437 ACS3 1 59588U 24077B 25312.49501389 .00020946 00000+0 18888-1 0 9991 2 59588 97.3199 275.6930 0047383 28.8276 331.5487 13.83299388 77408